軌道要素
Epoch 2013 Aug. 16.0 TT = JDT 2456520.5
T 2013 Aug. 22.99764 TT MPCW
q 2.1478340 (2000.0) P Q
n 0.06312570 Peri. 37.88916 +0.82029000 +0.51343712
a 6.2469100 Node 289.39343 -0.56796149 +0.67931128
e 0.6561766 Incl. 15.49557 -0.06740966 +0.52432672
P 15.6
From 1555 observations 2013 May 8-2014 Dec. 29, mean residual 0".4.
|